Regional Weather Roundup
Issued by NWS

Home | Current Version | Previous Version | Graphics & Text | Print | Product List | Glossary On
Versions: 1 2 3 4 5 6 7 8 9 10 11 12 13 14 15 16 17 18 19 20 21 22 23 24 25 26 27 28 29 30 31 32 33 34 35 36 37 38 39 40 41 42 43 44 45 46 47 48 49 50
607
ASUS45 KCYS 051010
RWRWY

WYOMING REGIONAL WEATHER ROUNDUP
NATIONAL WEATHER SERVICE CHEYENNE WY
300 AM MST MON DEC 05 2016

NOTE:  "FAIR" INDICATES FEW OR NO CLOUDS BELOW 12,000 FEET
WITH NO SIGNIFICANT WEATHER AND/OR OBSTRUCTIONS TO VISIBILITY.

WYZ001-051100-
YELLOWSTONE NATIONAL PARK

CITY           SKY/WX    TMP DP  RH WIND       PRES   REMARKS
LK YELLOWSTONE   N/A     14   8  77 W12G23    29.54R WCI   0
W YELLOWSTONE  NOT AVBL

$$
WYZ002>013-054>058-071-098>099-051100-
NORTHERN WYOMING

CITY           SKY/WX    TMP DP  RH WIND       PRES   REMARKS
JACKSON        CLOUDY    25  18  74 SW21G35   29.59R WCI  10
CODY           LGT SNOW  25  21  86 N7        29.59R FOG     WCI  17
GREYBULL       CLOUDY    33  16  49 NW20G31   29.56R WCI  21
WORLAND        FLURRIES  29  26  89 NW14      29.56R WCI  18
SHERIDAN       CLOUDY    29  25  85 NW14      29.61S WCI  18
BUFFALO        FLURRIES  28  22  78 N21G31    29.56S WCI  15
GILLETTE       LGT SNOW  29  28  96 NW17      29.56F FOG     WCI  17
HULETT         LGT SNOW  32  30  93 N7        29.54F VSB 3/4 WCI  26
NEWCASTLE      FAIR      34  27  75 NW9       29.53R WCI  26

$$
WYZ014>020-022>026-101>103-051100-
CENTRAL WYOMING

CITY           SKY/WX    TMP DP  RH WIND       PRES   REMARKS
BIG PINEY      LGT SNOW  27  25  92 W8        29.62F FOG     WCI  19
PINEDALE       LGT SNOW  28  27  93 SW9       29.59F WCI  20
DUBOIS         CLOUDY    27  16  63 W21G30    29.51R WCI  13
LANDER         MOCLDY    34  26  72 SW14      29.52S WCI  25
RIVERTON       FAIR      30  22  72 W12       29.51F WCI  20
CASPER         FAIR      37  25  61 SW21G35   29.53F WCI  26
DOUGLAS        FAIR      41  23  48 W25G38    29.51F

$$
WYZ021-027>030-104>119-051100-
SOUTHERN WYOMING

CITY           SKY/WX    TMP DP  RH WIND       PRES   REMARKS
EVANSTON       MIX PCPN  30  24  78 SW18G26   29.71S WCI  18
KEMMERER       LGT SNOW  28  27  93 W18       29.66F WCI  16
FORT BRIDGER   CLOUDY    32  31  97 SW18G24   29.70F WCI  20
ROCK SPRINGS   FLURRIES  30  27  88 SW23G30   29.66F WCI  17
DIXON          CLOUDY    32  15  50 SW13G18   29.75F WCI  22
RAWLINS        CLOUDY    30  17  58 SW26G38   29.65F WCI  16
SARATOGA       CLOUDY    32  18  55 SW21G32   29.68S WCI  20
LARAMIE        FAIR      35  17  47 SW25G35   29.61F WCI  23
CHEYENNE       FAIR      36  18  48 W13       29.61S WCI  27
TORRINGTON     FAIR      46  19  34 W14       29.55F
PINE BLUFFS    FAIR      28  18  64 S10G17    29.62F WCI  19

$$




USA.gov is the U.S. government's official web portal to all federal, state and local government web resources and services.